Find Starlink 37220

NORAD ID: 68398 Int'l Des: 2026-063 Owner: SPXS Country: US Constellation: starlink operational
LEOCIRCULARRETROGRADE

Live Position

Loading 3D Globe...

About Starlink 37220

Description loading...

Upcoming Passes

Passes for default location (London). Set your location on the main map for personalized predictions.

Altitude History

Loading altitude history...

Two-Line Element Set

1 68398U 26063U 26132.91959644 .00027849 00000-0 51148-3 0 9994
2 68398 97.2832 275.5807 0001549 82.4124 277.7304 15.49212673 7738
Epoch: May 12, 2026 • Age: 9 hours

Current Status

Altitude 438.7 km
Velocity 7.65 km/s
Sub-Earth Point -48.87°S, 54.12°W
Launch Date Mar 26, 2026
Age 0.1 years
Type internet

Technical Details

Classification Payload
Mass 575.00 kg
Dry Mass 530.00 kg
Total Mass 575.00 kg
Length 0.30 m
Diameter 4.10 m
Span 29.00 m
Shape Box + pan
Manufacturer SPXS
Bus Type Starlink V2MO
Phase Status In Orbit
Owner/State SPXS/US

Most Searched